Tracking 19570 objects as of 21-Feb-2019
HD Live streaming from Space Station
objects crossing your sky now

APRIZESAT 5

Track APRIZESAT 5 now!
10-day predictions
APRIZESAT 5 is classified as:


NORAD ID: 37792
Int'l Code: 2011-044E
Perigee: 611.3 km
Apogee: 691.4 km
Inclination: 98.4 °
Period: 97.6 minutes
Semi major axis: 7022 km
RCS: 0.107 m2 (medium)
Launch date: August 17, 2011
Source: United States (US)
Launch site: Orenburg, Russia (OREN)
aabbcc
Your satellite tracking list
Your tracking list is empty




NASA's NSSDC Master Catalog

Two Line Element Set (TLE):
1 37792U 11044E   19052.07563384  .00000024  00000-0  12114-4 0  9990
2 37792  98.4071 226.6229 0057084 258.9056 100.5729 14.75295453404363
Source of the keplerian elements: AFSPC